User: anonymous   Login
Location: Standeford and Andreas Observatories
(44.1397°N, 93.9969°W)
Time: 01:39:44
(UTC-05:00)
Language:

Cosmos 1500 Rocket - Orbit

View from above orbital plane
View from above orbital plane
View from above satellite
View from above satellite

Ground track
Ground track

The orbit data is extracted from the following two-line orbital elements,

1 14373U 83099B   14295.81641949  .00000988  00000-0  11770-3 0  8049
2 14373 082.5418 069.2929 0020846 177.8801 294.7788 14.83186078677301
Epoch (UTC): 22 October 2014 19:35:38
Eccentricity: 0.0020846
inclination: 82.5418°
perigee height: 605 km
apogee height: 634 km
right ascension of ascending node: 69.2929°
argument of perigee: 177.8801°
revolutions per day: 14.83186078
mean anomaly at epoch: 294.7788°
orbit number at epoch: 67730

The dashed part of the orbit path shows where the satellite is in the earth's shadow,  

DLR